Powrót do katalogu

STARLINK-4712

AktywnyŁącznośćVLEO
NORAD 53798·PAYLOAD·🇺🇸 United States

Wystrzelony Sep 11, 2022 z Cape Canaveral Space Force Station

Loading…

Następne Przeloty (najbliższe 24 godziny)

TLE

ŚwieżeSource: CelesTrak SupGP

Epoka: Sep 14, 2026, 21:42 UTC

1 53798C 22111AB  26257.90465278 -.00078467  00000+0 -25219-2 0  2573
2 53798  53.1575 131.9224 0001367  85.4963 307.2549 15.31758075    17

Śledź STARLINK-4712 w czasie rzeczywistym z AllMySat

Download on the App Store